Regional Weather Roundup
Issued by NWS

Home | Current Version | Previous Version | Graphics & Text | Print | Product List | Glossary On
Versions: 1 2 3 4 5 6 7 8 9 10 11 12 13 14 15 16 17 18 19 20 21 22 23 24 25 26 27 28 29 30 31 32 33 34 35 36 37 38 39 40 41 42 43 44 45 46 47 48 49 50
000
ASUS45 KTFX 262019
RWRMT
MONTANA HOURLY WEATHER ROUNDUP
NATIONAL WEATHER SERVICE GREAT FALLS MT
219 PM MDT THU MAR 26 2015

NOTE: "FAIR" INDICATES FEW OR NO CLOUDS BELOW 12000 FEET WITH NO
SIGNIFICANT WEATHER AND/OR OBSTRUCTIONS TO VISIBILITY.

* THESE STATIONS ARE NOT UNDER NWS QUALITY CONTROL. THEY DO NOT
   REPORT WEATHER SUCH AS PRECIPITATION OR FOG.

MTZ001>007-043-262100-
WEST OF THE DIVIDE
CITY           SKY/WX    TMP DP  RH WIND       PRES   REMARKS
KALISPELL      CLOUDY    45  43  93 CALM      30.29F
MISSOULA       CLOUDY    50  39  66 SE3       30.35S
BUTTE          CLOUDY    54  34  47 NW17      30.29F
MULLAN PASS    FOG       37  37 100 SW7       30.34S VSB 3/4  WCI  32
* ESSEX        N/A       48  40  74 NE2        N/A
* EUREKA APT   PTSUNNY   54  43  67 SE14       N/A
* HAMILTON APT PTCLDY    55  37  51 W6        30.35S
* LIBBY APT    PTCLDY    61  41  48 CALM      30.26F
* LINCOLN      N/A       45  39  80 SW4G12     N/A
* LOOKOUT PASS N/A       46  41  83 SE9        N/A
* POLSON       N/A       52  41  66 S2G7       N/A
* RONAN APT    PTCLDY    54  45  72 SE9        N/A
* SEELEY LAKE  N/A       49  39  69 NW6G13     N/A
* THOMP F APT  PTCLDY    43  28  56 SE6G13     N/A
$$

MTZ008-052>055-262100-
SOUTHWEST MONTANA
CITY           SKY/WX    TMP DP  RH WIND       PRES   REMARKS
BOZEMAN        CLOUDY    55  32  42 W14       30.24F
DILLON         CLOUDY    59  32  36 W18G24    30.27F
* W YELLOWSTON PTCLDY    40  28  62 SW5G15     N/A   WCI  36
* THREE FORKS  PTSUNNY   57  36  46 NW7        N/A
* BOULDER HILL N/A       51  30  45 S3G19      N/A
* HOMESTAKE PS N/A       49  34  56 NW14G26    N/A
* MONIDA PASS  N/A       46  29  52 SE15       N/A
* RAYNOLDS PAS N/A       35  17  48 SE20G25    N/A   WCI  24
* WHITEHALL    N/A       59  34  39 NW10G18    N/A
* WISE RIVER   N/A       51  33  50 W16G24     N/A
$$

MTZ009>010-012-014-046-048-049-054-262100-
EAST SLOPES AND CENTRAL MONTANA
CITY           SKY/WX    TMP DP  RH WIND       PRES   REMARKS
CUT BANK       PTSUNNY   61  34  36 W31       30.05F
GREAT FALLS    PTSUNNY   64  36  35 SW24G33   30.07F
HELENA         CLOUDY    61  37  41 W17G23    30.24S
MALMSTROM AFB  PTSUNNY   63  36  37 W20G30    30.08F
* CONRAD       PTSUNNY   63  37  38 SW16G25    N/A
* DEARBORN     N/A       58  36  44 S17G29     N/A
* EAST GLACIER N/A       48  35  61 SW34G43    N/A
* MONARCH      N/A       52  28  40 W19G24     N/A
* PENDROY      N/A       62  33  34 NW20G28    N/A
* ROGERS PASS  N/A       42  36  79 SE19G35    N/A
* SWEET GRASS  N/A       59  33  38 NW23G35    N/A
* WHITE SULPH  N/A       56  36  47 W10G22     N/A
$$

MTZ011-013-016-021-035-040-045-047-050-051-262100-
NORTH CENTRAL MONTANA
CITY           SKY/WX    TMP DP  RH WIND       PRES   REMARKS
HAVRE          PTCLDY    63  34  34 W9        30.02F
LEWISTOWN      CLOUDY    59  34  39 NW22      30.08F
* CHINOOK      PTSUNNY   61  34  36 W16       30.02F
* FORT BENTON  CLOUDY    64  34  33 SW15G23   30.04F
* CHESTER      N/A       60  33  36 W11G19     N/A
* DENTON       N/A       61  31  32 NW16G21    N/A
* GEYSER       N/A       59  31  35 W21G32     N/A
* JUDITH GAP   N/A       57  32  39 W18        N/A
* LOMA         N/A       65  34  32 SW19G27    N/A
$$

MTZ017>020-022>027-061-062-262100-
NORTHEAST MONTANA
CITY           SKY/WX    TMP DP  RH WIND       PRES   REMARKS
GLASGOW        CLOUDY    48  30  50 SE12      30.09F
GLENDIVE       PTSUNNY   46  30  54 E6        30.14F
JORDAN         PTSUNNY   55  30  39 NW12      30.07F
SIDNEY         PTSUNNY   41  30  65 N3        30.17F
WOLF POINT     CLOUDY    46  36  68 E9        30.15F
* BEAVER HILL  N/A       44  32  63 E4G11      N/A
* CIRCLE       N/A       51  33  50 E3G10      N/A
* LINDSAY DVD  N/A       47  30  52 SE9        N/A
* NAVAJO       N/A       36  30  79 SE10       N/A   WCI  29
* PLENTYWOOD A PTSUNNY   41  30  65 SE7       30.15F
* POPLAR APT   PTCLDY    41  36  82 E10       30.16F
* SACO         N/A       51  29  43 SE6G14     N/A
$$

MTZ028>042-056>058-262100-
SOUTHCENTRAL AND SOUTHEAST MONTANA
CITY           SKY/WX    TMP DP  RH WIND       PRES   REMARKS
BAKER          CLOUDY    46  30  54 CALM      30.13F
BILLINGS       CLOUDY    63  32  31 NW23G31   30.10F
LIVINGSTON     CLOUDY    57  32  39 W31G37    30.18F
MILES CITY     CLOUDY    52  30  43 SE8       30.10F
* BIG TIMBER A PTSUNNY   57  34  42 W29G40    30.15S
* FORSYTH APT  PTSUNNY   55  34  45 NW3       30.09F
* LAUREL APT   PTSUNNY   57  30  36 SW13G22    N/A
* ALZADA       N/A       49  27  43 W12        N/A
* HYSHAM       N/A       54  29  38 W4         N/A
* LAME DEER    N/A       50  32  50 NW6G16     N/A
* REED POINT   N/A       60  32  35 W32G40     N/A
* ROSCOE HILL  N/A       58  20  23 NW6G24     N/A
$$

REGIONAL REPORTS...DAKOTAS
CITY           SKY/WX    TMP DP  RH WIND       PRES   REMARKS
WILLISTON      CLOUDY    45  27  49 SE9       30.18F
DICKINSON      CLOUDY    36  30  79 VRB6      30.16S WCI  31
BEACH          SUNNY     41  34  76 E8        30.15S
CROSBY         PTSUNNY   39  27  62 E3        30.20F
TIOGA          PTSUNNY   37  25  62 S6        30.21F WCI  32
WATFORD CITY   PTSUNNY   41  27  58 S5        30.16F
BISMARCK       CLOUDY    37  21  52 E7        30.23F WCI  32
GRAND FORKS    LGT SNOW  32  18  56 N17G26    30.28F WCI  21
FARGO          PTSUNNY   36  10  34 N20G25    30.24F WCI  25
BUFFALO SD     CLOUDY    46  27  48 NE7       30.06F
RAPID CITY     PTSUNNY   48  28  46 N20       30.11R
$$

REGIONAL REPORTS...WYOMING/IDAHO/WASHINGTON
CITY           SKY/WX    TMP DP  RH WIND       PRES   REMARKS
GILLETTE       CLOUDY    50  34  54 NW18G28   30.12F
SHERIDAN       CLOUDY    55  34  45 NW21G26   30.12F
CODY           CLOUDY    61  28  29 W13G23    30.15F VSB M1/4
YELLOWSTONE LA PTSUNNY   39  28  65 W9        30.36S WCI  33
SALMON         PTSUNNY  N/A N/A N/A NW3       30.32F
MULLAN PASS    FOG       37  37 100 SW7       30.34S VSB 3/4  WCI  32
SAND POINT     CLOUDY    55  46  72 W8        30.31F
SPOKANE        CLOUDY    57  45  64 SW10      30.31S
$$

REGIONAL REPORTS...ALBERTA
CITY           SKY/WX    TMP DP  RH WIND       PRES   REMARKS
CALGARY        PTSUNNY   63  28  27 W13G25    29.97F
LETHBRIDGE     PTSUNNY   59  37  44 W36G47    30.01S
MEDICINE HAT   PTSUNNY   61  32  34 NW8       29.99F
EDMONTON       CLOUDY    43  32  65 S2        29.99F
WATERTON GATE  N/A       50  36  59 SW26G40    N/A
CARDSTON       N/A       52  37  57 W15G25     N/A
MILK RIVER     N/A       61  36  39 NW28G35    N/A
$$

REGIONAL REPORTS...SASKATCHEWAN
CITY           SKY/WX    TMP DP  RH WIND       PRES   REMARKS
SWIFT CURRENT  CLOUDY    48  28  46 S12G17    30.04F
MOOSE JAW      CLOUDY    41  34  76 SE9       30.15S
REGINA         CLOUDY    36  28  73 SE14      30.18F WCI  27
VAL MARIE      N/A       52  25  35 SW10       N/A
ASSINIBOIA     N/A       41  32  70 S9         N/A
CORONACH       N/A       37  34  89 SE10       N/A   WCI  30

$$




USA.gov is the U.S. government's official web portal to all federal, state and local government web resources and services.